Tracking 19575 objects as of 19-Feb-2019
HD Live streaming from Space Station
objects crossing your sky now

LEASAT 1

Track LEASAT 1 now!
LEASAT 1 is classified as:


NORAD ID: 15384
Int'l Code: 1984-113C
Perigee: 36,159.1 km
Apogee: 36,411.2 km
Inclination: 13.7 °
Period: 1,461.3 minutes
Semi major axis: 42656 km
RCS: 16.1907 m2 (large)
Launch date: November 8, 1984
Source: United States (US)
Launch site: AIR FORCE EASTERN TEST RANGE (AFETR)
aabbcc
Your satellite tracking list
Your tracking list is empty




NASA's NSSDC Master Catalog

Two Line Element Set (TLE):
1 15384U 84113C   19049.82063120 -.00000140  00000-0  00000+0 0  9998
2 15384  13.7357 355.9405 0029547 245.0848 316.1173  0.98544050 97652
Source of the keplerian elements: AFSPC